Theta_e
336 336 336 334 333 332 331 330 329 329 329 329 328 328 326 325 325 324 323 322 321 321 322 322 322 321 320 320 320 321 322 321 318 314 311 311 312 312 312 312 311 313 315 316 316 315 317 316 312 309 307 305 305 304 304 304 304 304 304 304 304 304 304
336 336 336 334 332 332 331 329 328 328 329 328 327 326 325 324 324 322 321 320 319 319 320 320 319 318 317 317 317 319 319 319 317 315 314 314 314 314 313 313 311 311 311 311 312 312 315 317 315 312 310 308 308 305 304 304 303 303 305 305 305 304 305
336 336 334 332 331 331 330 329 329 329 328 327 325 325 324 323 322 321 320 318 317 317 317 316 316 315 314 314 314 315 316 316 315 315 315 314 314 314 314 314 313 312 313 312 312 311 313 315 315 313 311 311 311 309 306 305 304 304 305 306 305 305 304
336 335 333 331 330 330 329 329 329 328 327 326 325 324 323 323 321 319 318 317 316 315 314 313 312 312 311 311 312 312 313 313 313 313 313 312 312 312 312 312 312 312 312 313 312 311 312 313 315 315 311 310 312 310 307 307 306 305 306 306 304 303 303
335 333 332 331 330 330 329 328 328 328 326 325 324 323 323 322 321 318 317 317 316 314 313 311 311 310 310 311 311 312 313 313 313 312 311 311 310 310 310 310 310 310 310 310 310 310 311 310 312 314 310 308 311 311 308 308 307 306 306 305 303 302 302
334 333 332 331 330 330 329 328 328 327 326 325 324 323 322 322 320 318 317 317 315 313 312 311 310 310 310 310 311 311 312 313 312 311 311 310 310 309 309 309 309 309 308 309 308 309 309 308 309 310 310 309 310 310 308 308 307 305 304 303 302 302 302
334 333 332 331 331 330 329 328 327 327 326 324 324 322 321 321 319 318 317 315 314 312 310 310 310 309 309 309 309 309 310 311 310 310 310 310 309 309 309 308 308 308 308 307 307 307 307 307 307 308 308 309 310 308 306 307 307 305 303 302 302 302 302
334 333 332 331 330 329 329 328 327 326 326 324 323 322 321 320 319 317 316 314 312 311 309 309 309 309 309 309 308 308 308 309 308 308 309 309 308 308 308 308 307 307 307 307 306 307 306 306 306 306 306 308 311 311 307 307 306 304 303 303 302 303 302
334 333 332 331 330 329 329 328 327 326 325 324 323 322 320 319 318 316 314 313 311 310 309 309 309 309 308 307 306 306 307 307 307 307 308 308 307 307 307 307 306 306 306 306 306 306 306 305 305 305 305 306 309 311 310 310 309 306 304 303 303 303 302
334 333 332 331 329 329 328 327 327 326 324 323 322 321 319 318 317 315 313 312 310 309 309 309 309 308 307 306 306 307 307 308 308 308 307 307 307 307 306 306 306 306 305 305 305 305 305 305 305 305 305 304 306 308 310 311 310 307 305 304 303 303 303
334 333 331 330 329 329 328 327 327 325 324 323 321 320 318 317 316 314 313 311 310 309 309 308 309 308 307 307 307 307 307 307 307 307 307 307 307 306 306 306 305 305 305 305 304 304 304 305 305 304 305 304 304 305 307 308 309 307 304 304 304 303 303
334 333 331 330 329 328 328 327 326 324 323 323 321 319 318 317 315 314 312 311 310 309 308 308 308 308 307 307 307 307 307 307 307 307 306 306 306 306 306 306 305 305 305 305 304 305 304 304 305 304 304 304 304 304 304 305 307 305 304 304 304 303 303
333 332 331 330 329 328 328 326 325 323 323 323 321 318 317 316 315 314 312 311 310 309 308 308 308 308 307 307 307 307 307 307 306 306 306 306 306 306 306 306 306 306 305 305 304 304 304 304 304 304 304 304 304 304 303 303 305 305 303 303 304 303 303
333 332 331 330 328 328 327 325 323 323 322 321 319 317 317 316 315 313 312 311 310 309 308 308 308 308 308 307 307 307 307 306 306 306 306 306 305 305 305 305 305 305 305 305 304 304 304 305 305 304 304 304 304 303 303 302 303 304 303 303 304 303 303
332 331 331 329 328 327 325 323 322 321 321 320 319 317 316 315 314 313 312 311 310 309 309 308 308 308 308 307 307 307 307 306 306 305 305 305 305 305 304 304 305 305 305 305 304 304 304 305 305 304 303 303 303 303 303 303 303 304 304 303 303 302 302
331 330 330 328 327 325 323 322 321 320 320 319 318 317 316 315 313 312 311 311 309 309 309 308 308 308 308 307 306 307 307 306 306 305 305 305 305 305 305 305 305 305 305 305 305 304 303 304 305 305 304 303 303 303 303 302 302 303 303 303 302 302 302
331 329 328 326 325 323 322 322 321 319 318 318 317 316 315 314 313 312 311 310 309 309 308 308 308 308 307 307 307 307 306 306 306 305 304 304 304 305 305 305 305 305 306 305 304 303 303 303 304 304 304 303 302 302 301 301 301 302 302 302 301 301 301
330 328 326 325 323 323 322 321 320 318 317 316 316 316 315 314 312 311 310 310 309 309 309 308 308 308 307 307 307 307 306 306 306 305 304 304 305 305 305 305 305 305 306 305 304 303 302 302 303 303 303 302 301 300 300 300 300 300 300 301 301 300 300
328 326 324 324 323 322 322 320 319 318 316 315 316 315 314 313 312 311 310 309 309 309 308 308 308 307 307 307 307 306 306 306 306 305 305 304 305 305 305 305 305 305 305 304 303 301 300 301 302 302 301 300 299 299 299 299 299 299 299 300 300 300 299
326 325 323 323 322 321 321 320 318 317 315 315 315 314 313 313 312 311 310 309 309 309 308 307 307 307 307 307 306 306 306 306 306 305 304 305 305 304 305 305 304 303 303 303 302 300 298 298 300 300 299 298 298 298 298 298 299 299 299 299 299 299 299
325 324 323 322 321 321 320 319 318 316 315 315 315 314 313 312 311 311 310 309 309 308 307 307 306 306 307 307 306 307 306 306 305 305 305 305 305 304 305 304 303 302 301 301 300 297 294 294 296 297 296 295 295 296 297 297 298 298 298 298 298 298 298
324 323 322 321 321 321 319 319 317 315 315 315 314 313 312 312 311 310 309 309 309 308 307 306 305 306 306 306 306 307 306 306 305 305 305 305 304 305 305 304 302 300 297 295 295 294 294 295 295 295 295 295 296 297 297 297 298 298 297 297 297 297 298
323 322 321 321 321 320 319 318 316 315 314 314 313 312 312 311 310 310 309 309 308 308 307 306 306 306 306 306 306 306 306 306 306 306 305 305 305 305 305 304 301 298 294 293 294 297 299 299 298 298 298 299 299 299 298 298 298 299 298 298 297 297 298
322 321 321 321 320 320 319 317 315 314 314 313 312 312 311 310 310 309 309 308 308 307 306 306 306 305 305 306 306 306 306 306 306 306 306 305 305 305 305 304 302 300 299 296 295 299 301 300 299 299 299 300 300 300 299 298 298 299 299 298 298 298 298
321 321 321 321 320 319 319 317 314 313 313 312 311 311 310 309 309 310 309 308 307 307 306 306 306 305 306 306 306 307 307 306 306 306 306 306 305 305 305 305 304 303 302 298 297 300 301 300 300 300 299 301 302 301 301 300 299 299 299 298 298 298 299
321 321 320 320 319 319 319 316 314 313 312 311 310 310 309 309 309 309 307 307 307 307 306 306 306 305 306 306 307 307 307 306 306 307 306 306 306 306 305 305 304 303 303 301 300 301 300 298 298 299 300 302 303 303 303 303 302 300 299 298 298 298 299
321 320 320 320 319 319 317 315 313 312 311 310 309 309 309 308 308 308 307 307 308 308 307 307 306 305 305 306 306 307 307 307 306 307 307 306 307 307 306 305 304 303 303 303 303 302 299 295 295 298 301 303 304 303 303 303 303 301 300 299 299 298 298
320 319 319 319 319 318 316 314 313 312 310 309 309 308 308 307 307 306 307 309 308 308 308 308 307 306 305 305 306 306 307 307 306 306 307 306 306 306 305 305 305 304 303 303 303 303 299 294 294 299 303 303 303 302 303 303 303 301 299 299 298 298 298
319 319 318 318 318 317 315 313 312 311 310 309 309 308 307 306 306 306 308 308 307 308 309 308 307 306 305 304 305 305 306 306 305 306 307 306 305 305 305 305 304 303 303 303 303 303 299 293 294 300 302 302 302 302 303 302 301 299 297 298 298 298 299
319 318 318 317 317 315 314 313 311 310 310 309 308 308 307 307 307 307 307 307 307 308 309 308 307 306 304 303 304 305 305 306 306 306 306 305 304 305 305 304 303 302 303 303 303 303 299 294 294 299 301 301 301 302 302 301 299 297 297 298 299 300 300
321 320 318 317 316 315 314 312 311 309 308 307 306 306 305 305 306 305 305 306 308 308 308 308 308 305 301 300 303 304 303 305 306 305 304 304 304 304 305 304 302 302 303 303 303 302 298 294 294 297 298 299 301 302 301 299 297 297 299 299 299 300 301
321 320 318 316 315 314 313 311 310 308 307 305 304 303 303 303 303 303 305 306 308 309 308 308 307 304 299 298 301 303 303 303 304 303 303 304 304 304 305 304 302 302 303 303 303 301 296 294 294 295 295 297 300 301 300 297 297 298 299 299 299 300 301
319 318 316 315 314 313 312 310 309 307 306 305 303 302 302 302 303 304 306 307 308 308 308 307 305 302 299 297 299 302 302 302 302 302 303 304 304 304 304 304 302 300 300 301 301 298 295 294 295 295 295 295 298 298 297 297 298 298 298 299 300 301 301
317 316 315 315 314 312 311 309 308 307 305 304 303 303 303 304 305 306 306 307 308 307 307 306 304 301 299 297 297 300 302 302 302 303 304 304 304 304 304 303 301 298 296 296 296 295 294 295 295 295 295 295 295 295 296 297 298 298 299 299 301 301 300
316 316 315 314 313 311 310 309 308 307 306 304 304 304 305 306 306 306 306 306 307 306 306 305 303 300 298 297 296 298 300 301 302 303 304 304 304 303 303 303 302 299 297 297 296 295 294 295 295 295 295 294 295 295 296 297 298 298 299 300 301 301 300
316 315 314 313 312 310 309 308 308 307 306 305 305 305 305 305 305 304 305 306 306 306 305 304 302 299 298 297 297 297 297 299 301 302 302 304 304 303 302 302 302 301 300 300 299 297 295 295 295 295 296 296 296 297 297 298 298 299 299 300 301 300 300
314 314 313 312 311 310 309 308 307 306 306 305 305 304 303 303 303 303 305 306 306 305 304 302 300 299 298 298 299 296 295 297 300 301 301 302 302 302 303 303 302 302 301 301 300 297 295 294 295 295 297 298 298 298 298 298 299 300 300 301 301 300 300
Wind_Speed
16 15 15 16 16 16 15 13 12 10 8 5 4 3 3 4 3 3 5 5 5 5 6 7 6 6 6 6 7 8 8 7 7 8 8 7 7 6 5 5 4 3 3 4 3 1 2 3 4 5 5 3 2 2 4 2 2 5 6 6 6 4 5
17 17 17 18 17 17 15 13 11 10 8 6 5 5 4 5 5 4 5 6 5 5 7 7 7 8 7 7 8 8 8 9 10 11 10 9 8 7 5 4 4 5 5 5 6 5 2 2 3 5 6 6 5 5 5 3 2 4 4 6 7 4 5
19 19 19 18 17 17 16 13 12 10 8 6 6 6 5 6 7 5 5 6 6 7 7 7 7 8 9 9 10 9 9 10 10 11 11 10 10 9 9 8 8 8 7 7 10 11 6 2 2 3 11 11 8 9 9 5 3 4 5 7 8 6 5
22 21 20 19 18 18 16 14 13 11 9 8 7 6 4 6 8 6 6 6 7 7 8 8 8 9 10 11 11 11 11 10 11 11 11 11 10 10 11 12 13 12 10 10 11 13 10 7 6 1 6 7 7 12 14 8 4 6 9 6 5 6 5
24 22 21 20 19 19 17 16 14 12 10 9 8 6 4 5 6 6 6 7 8 8 9 9 10 10 11 11 12 13 13 12 12 12 13 12 11 12 12 12 12 12 12 12 11 11 11 10 9 7 6 5 2 10 15 12 4 5 9 4 3 4 5
24 22 22 21 20 19 17 17 15 13 12 10 9 8 7 6 6 6 6 7 9 9 10 10 10 11 11 12 12 12 13 13 12 13 14 14 12 12 11 11 11 11 12 11 10 11 10 12 12 9 10 9 6 3 10 14 9 4 3 2 5 5 5
23 22 22 21 21 19 18 17 15 13 13 12 10 9 8 8 7 7 7 7 9 10 11 11 11 11 12 12 13 13 13 13 12 13 14 13 13 12 11 11 12 12 11 10 10 12 11 11 12 10 11 10 8 7 2 6 8 6 4 7 7 6 7
23 23 22 21 21 20 18 18 15 13 14 13 11 10 9 9 8 8 8 9 10 11 12 12 12 12 12 13 13 13 14 12 13 14 13 13 13 12 12 11 11 11 11 10 10 11 11 10 10 10 10 8 5 5 7 5 5 6 7 9 9 8 9
24 24 23 22 22 20 19 18 16 15 15 13 11 12 11 10 10 9 9 10 11 11 12 12 12 12 12 13 14 14 14 13 13 13 12 13 13 12 11 10 10 11 10 10 10 10 10 9 9 10 11 10 6 4 5 6 6 7 8 11 12 11 11
24 24 24 24 23 20 19 19 16 16 16 13 12 14 12 11 11 10 10 11 11 11 11 11 12 12 13 14 14 14 14 13 13 13 12 12 12 11 10 9 9 10 10 10 11 10 9 9 9 9 10 11 9 6 3 3 4 6 9 12 13 13 15
25 24 25 25 24 22 20 19 18 17 17 13 12 13 13 12 12 11 12 12 12 12 12 12 13 13 14 14 14 14 13 13 13 12 11 11 10 10 9 9 9 10 11 10 10 9 9 8 8 8 8 8 9 7 5 4 4 7 11 14 14 16 19
26 24 25 26 25 23 21 20 19 18 15 13 13 13 14 14 13 13 13 12 12 12 12 13 13 13 14 14 14 14 12 12 12 11 10 10 9 9 9 9 9 10 10 9 9 8 8 8 8 8 7 6 6 6 6 6 4 6 12 16 17 19 20
27 25 26 26 26 24 21 20 20 19 16 14 15 14 14 15 14 14 13 13 13 13 13 13 13 13 13 13 13 13 12 11 11 11 10 9 8 8 8 8 8 8 8 7 7 6 6 7 7 7 7 6 6 6 8 8 6 10 16 16 17 20 21
28 27 27 27 26 23 21 20 20 20 17 15 15 16 16 16 15 14 14 14 13 13 13 13 12 13 13 12 12 12 12 11 11 11 10 9 8 8 8 8 8 8 8 7 6 6 5 6 6 6 7 7 7 7 9 10 9 12 18 19 18 21 22
29 28 27 26 26 24 22 21 20 19 17 15 16 17 17 17 16 15 15 14 14 13 13 13 13 12 12 12 12 12 11 11 11 11 10 9 9 9 9 9 8 7 7 6 6 6 6 6 6 6 7 7 8 8 9 11 12 12 17 21 22 22 22
29 28 27 25 25 24 23 22 20 19 18 17 17 17 18 18 17 16 15 15 14 14 13 13 12 12 12 13 12 12 11 11 11 10 10 10 9 9 9 8 7 6 5 5 4 5 5 5 6 6 6 7 8 9 9 11 13 14 17 21 22 22 22
28 27 26 26 26 25 24 23 21 19 18 19 19 18 18 18 17 17 16 15 15 14 14 13 12 12 12 12 12 12 11 11 10 10 10 10 9 8 8 8 6 5 4 4 4 4 4 5 5 5 6 7 8 10 11 11 13 15 17 19 22 22 22
29 27 27 28 28 27 25 23 21 20 20 20 19 19 19 18 18 17 16 16 15 14 14 13 13 13 13 12 12 12 12 11 10 10 10 9 9 8 8 7 6 5 4 3 3 3 4 5 5 5 6 7 8 10 12 12 13 15 17 19 22 22 22
30 27 28 30 29 28 26 24 22 21 21 20 20 20 20 19 18 18 17 16 15 14 14 13 13 13 13 12 12 12 12 11 10 10 10 9 8 8 8 7 6 5 4 3 3 3 3 3 4 5 6 7 8 10 11 13 14 15 17 19 20 22 22
30 29 30 31 29 28 26 24 22 21 21 21 21 21 20 19 19 18 17 17 16 15 15 14 13 13 12 12 12 12 12 11 10 10 10 9 8 8 7 6 5 5 4 4 3 1 0 1 1 3 5 6 7 9 11 13 14 15 17 18 19 21 21
30 31 32 31 29 28 26 24 22 21 22 21 21 21 21 20 20 19 18 18 17 16 16 15 14 13 13 13 12 12 11 11 11 10 10 9 8 8 7 6 6 5 4 4 3 1 2 2 2 3 4 5 6 8 10 11 13 15 16 17 18 20 20
30 32 32 31 30 28 26 24 22 22 22 22 22 21 21 21 21 20 20 20 19 19 18 18 17 16 16 16 15 13 12 12 11 11 10 9 8 8 7 7 6 4 3 3 4 3 5 5 5 5 6 6 7 8 9 10 11 13 15 16 17 19 20
30 32 33 32 30 28 26 24 23 22 22 22 22 22 21 21 21 22 22 23 22 22 21 20 20 19 17 16 16 14 13 12 11 11 10 10 9 8 8 8 6 2 1 3 3 2 4 4 5 6 7 8 8 9 9 9 10 11 13 15 16 18 18
32 34 33 32 31 29 26 25 24 23 23 22 22 23 24 23 22 24 26 25 23 23 21 20 20 19 18 17 16 15 14 13 12 12 11 10 10 9 9 9 6 2 2 2 1 2 4 5 7 7 8 8 9 11 12 11 12 12 12 14 16 18 18
34 35 33 31 31 29 26 25 25 24 24 24 24 25 25 23 22 26 28 25 22 22 21 19 20 20 19 19 18 15 14 13 12 12 11 10 10 10 9 8 6 3 2 2 2 4 5 6 7 9 9 9 10 12 13 14 15 14 13 14 17 18 18
33 33 32 32 31 28 26 25 25 25 24 24 25 25 25 22 21 25 26 22 20 20 20 19 20 20 20 20 19 16 14 13 13 12 11 11 11 12 12 9 6 5 5 5 3 4 5 5 6 8 8 9 12 12 12 14 15 15 14 15 17 19 20
31 32 32 32 31 28 26 25 24 24 25 25 26 25 23 21 22 23 22 20 19 19 18 19 21 21 21 20 19 16 12 12 13 12 11 11 10 11 11 10 8 7 8 7 6 7 7 7 7 6 6 9 11 12 13 14 13 12 13 14 17 20 23
30 31 33 33 31 28 27 27 25 24 25 25 25 24 22 22 23 22 19 18 19 18 18 19 20 22 23 21 21 17 10 9 13 12 10 10 10 9 9 8 7 7 7 8 9 9 9 8 6 3 6 9 10 11 12 12 9 9 12 15 17 21 23
30 32 33 32 31 29 28 27 25 25 25 24 24 24 22 22 22 21 19 18 19 18 18 20 20 21 24 24 23 19 10 7 10 12 10 9 9 9 9 9 8 7 6 8 10 10 9 8 4 4 7 9 9 10 10 9 9 12 15 16 17 19 21
30 31 32 31 30 29 28 27 25 26 26 24 23 23 22 21 21 20 20 19 18 17 19 21 20 20 23 26 26 21 12 6 8 10 9 9 9 10 10 10 10 8 8 10 10 9 9 7 4 4 7 8 9 9 9 9 13 15 14 14 16 18 20
31 31 31 30 30 29 28 27 27 27 27 25 23 22 22 21 20 20 20 20 17 17 19 21 19 18 22 26 27 22 12 7 7 9 10 10 10 11 11 12 12 9 8 10 9 9 8 6 3 4 6 8 9 9 10 13 15 14 13 15 19 19 19
31 32 31 31 32 31 29 28 28 26 26 25 23 22 22 21 20 20 20 19 16 16 20 21 19 18 21 25 27 22 13 9 9 10 11 11 11 11 13 14 15 13 11 9 8 8 7 5 3 4 6 7 8 10 12 13 15 15 17 21 21 20 19
31 32 31 31 32 31 29 29 28 26 24 23 22 21 21 20 20 19 19 18 16 15 18 20 20 20 20 23 26 23 15 11 11 11 12 12 12 12 13 14 15 16 16 14 11 9 8 5 4 5 6 6 8 10 11 12 14 16 20 23 21 18 18
32 31 31 31 32 29 27 29 29 26 23 21 21 20 19 19 19 18 18 18 15 14 16 17 19 22 22 22 26 25 19 13 10 9 11 13 12 13 14 14 13 13 15 15 12 10 8 6 5 6 6 7 8 9 10 13 15 17 20 21 18 17 18
32 30 30 31 31 28 26 27 28 25 23 22 21 20 19 18 18 18 18 17 16 15 15 16 20 25 25 23 25 26 23 17 11 6 7 11 12 14 15 15 15 13 13 12 9 8 8 7 7 6 6 7 8 9 10 14 16 18 19 19 17 16 18
33 32 32 33 32 30 28 28 27 25 23 22 21 21 20 19 17 16 17 17 17 16 16 17 20 25 25 23 24 25 25 21 14 8 6 5 8 12 15 16 17 15 14 12 9 8 9 9 9 7 6 7 7 9 11 14 17 18 18 17 16 16 18
34 33 34 33 32 31 30 29 27 24 22 23 24 23 23 22 19 17 18 18 17 17 16 17 20 24 24 24 23 23 25 24 18 13 8 3 4 7 11 13 14 14 13 11 9 9 10 11 10 8 7 7 9 11 13 16 18 17 14 14 14 15 17
Wind_Direction
165 170 171 164 161 154 149 154 159 154 140 131 130 136 138 126 118 111 114 121 123 130 132 124 122 124 126 126 115 112 121 110 94 105 109 102 99 91 88 88 87 86 80 83 68 62 149 162 181 180 175 177 148 149 174 189 266 290 307 323 336 310 293
170 170 165 159 158 155 155 161 162 154 144 138 139 152 161 144 124 113 119 121 118 128 129 125 127 123 119 122 120 117 120 111 98 99 96 87 87 79 73 74 77 85 79 62 38 20 35 160 171 174 178 190 214 213 191 188 253 303 281 267 302 306 286
166 163 160 157 157 158 162 166 163 157 149 145 150 170 174 144 127 119 124 125 121 124 123 120 127 125 118 113 113 115 119 115 105 101 95 90 87 74 63 62 60 55 53 49 31 19 7 341 17 160 177 185 199 206 213 217 234 294 271 251 279 285 291
161 161 158 157 161 164 166 165 161 155 147 152 165 179 160 120 119 123 127 130 122 119 120 117 116 115 113 110 108 108 110 108 103 99 93 90 87 79 70 66 62 54 50 46 31 21 13 4 356 328 180 194 198 189 204 222 227 255 250 248 283 280 295
163 165 163 162 165 167 163 158 157 151 148 156 166 174 160 121 127 132 128 130 127 124 124 119 114 112 110 109 106 105 104 103 103 101 94 88 83 79 75 69 67 65 58 49 39 31 21 13 1 342 356 353 263 182 189 204 223 247 232 228 304 296 306
165 167 167 167 168 166 162 159 156 151 154 164 167 169 168 157 153 145 138 139 134 129 127 123 118 116 114 112 110 108 107 105 105 104 96 90 87 84 81 76 72 71 65 56 48 44 32 26 24 359 347 348 319 243 186 189 191 185 168 21 338 316 317
167 168 168 170 171 167 164 164 159 155 162 170 171 171 170 169 164 157 150 143 137 132 130 125 118 116 116 113 112 110 106 104 105 104 98 94 92 88 85 81 75 71 67 63 60 55 45 36 32 10 348 342 315 307 294 180 166 141 62 13 346 328 330
170 170 168 169 169 166 167 167 160 161 170 173 176 177 172 170 167 163 155 141 139 138 132 127 122 121 121 117 115 112 105 105 106 104 99 95 92 87 85 83 80 77 69 65 66 61 54 45 33 18 12 359 319 326 353 10 73 65 21 5 345 332 337
170 168 166 167 166 166 169 167 164 169 172 171 177 175 169 171 169 164 157 145 141 139 132 130 126 124 124 119 115 110 103 101 101 100 99 95 91 88 86 84 82 79 73 71 70 62 56 52 37 27 34 28 3 352 350 357 27 22 6 358 339 328 334
169 167 166 166 165 166 169 167 168 171 167 164 171 169 167 172 169 163 158 148 142 139 134 132 128 125 123 117 113 111 108 106 102 99 97 95 93 91 88 90 90 80 74 72 67 59 51 49 40 33 39 35 21 12 354 345 347 340 346 347 332 323 327
168 167 168 167 164 165 168 169 166 163 160 162 167 167 167 169 166 163 158 149 144 140 136 133 128 125 122 118 116 114 111 109 107 103 101 101 99 99 96 94 90 80 73 67 59 52 45 43 42 35 34 34 30 25 1 331 311 322 336 335 325 323 324
168 166 167 167 165 165 168 169 165 160 159 167 170 165 167 168 166 162 157 151 148 142 138 134 129 128 126 122 119 115 112 111 110 107 106 106 103 103 100 91 84 75 66 61 55 48 40 38 38 34 30 23 24 22 352 332 302 306 323 324 320 322 322
170 166 166 166 165 165 168 169 170 169 166 169 173 169 169 171 167 164 159 154 150 144 140 136 131 131 126 121 120 118 117 116 113 111 110 110 111 110 103 94 89 79 70 64 54 47 38 31 28 27 23 10 6 5 345 335 312 299 311 317 317 320 321
169 165 165 166 164 164 167 166 167 171 167 165 171 172 174 174 169 165 162 157 152 146 143 139 135 132 126 124 126 123 123 122 119 120 120 119 120 116 107 97 91 85 79 74 59 50 41 28 26 19 13 5 355 352 345 337 324 308 311 316 319 320 322
168 165 164 165 164 165 167 165 162 164 165 166 170 173 174 173 170 167 162 157 154 149 145 142 138 135 132 132 130 128 130 130 128 129 130 129 126 119 113 103 95 88 80 72 59 51 40 30 28 19 8 2 347 341 342 336 327 314 310 315 320 321 323
167 167 167 166 164 165 167 166 163 162 166 167 169 173 173 170 168 166 162 158 153 150 149 146 142 141 140 138 135 135 137 137 137 139 138 136 131 122 115 107 100 96 88 81 66 52 43 34 28 17 2 354 344 338 339 335 327 315 308 311 317 318 320
164 165 168 167 163 163 164 166 164 163 165 165 167 171 171 168 167 165 162 158 154 153 151 147 146 147 145 143 143 141 141 142 143 145 144 140 136 130 123 117 113 108 101 98 79 54 48 37 25 17 359 347 343 339 336 332 324 315 309 308 311 314 317
164 164 168 168 164 164 163 162 162 164 165 165 167 170 169 168 168 165 161 159 155 154 152 150 150 151 151 152 150 147 146 148 148 148 148 143 139 138 131 126 124 119 115 107 85 55 41 33 20 9 353 343 342 338 333 331 325 319 313 308 309 314 319
167 167 169 168 165 165 164 161 162 165 167 167 168 169 169 168 167 164 162 160 156 154 153 154 155 155 157 157 154 154 152 151 153 150 147 146 145 143 138 135 130 123 118 102 81 57 38 40 28 6 350 342 341 338 334 334 330 323 318 314 314 318 321
170 170 169 165 163 164 163 162 164 167 170 170 169 168 169 169 167 165 163 159 157 156 153 154 156 157 160 159 157 159 157 154 155 152 151 152 149 145 144 140 134 131 131 122 110 100 49 91 65 6 345 338 342 341 339 337 332 328 326 323 321 321 322
170 170 167 164 163 163 162 163 166 170 171 170 168 169 170 169 167 165 163 159 157 155 152 155 160 161 163 164 163 163 162 160 158 157 158 155 152 152 148 145 150 157 166 174 169 130 73 69 53 12 347 345 352 350 345 339 334 332 330 326 323 322 322
166 166 165 164 163 163 162 165 169 170 171 170 169 171 171 169 167 165 161 160 159 159 160 165 170 172 172 170 168 168 170 170 167 164 163 159 158 158 153 161 176 182 189 185 158 97 62 47 26 14 5 2 0 352 343 335 330 329 327 324 324 324 323
164 163 164 165 164 163 163 167 170 170 170 169 170 173 172 168 168 166 162 162 163 164 169 173 174 175 176 172 169 171 175 176 174 172 170 169 170 169 172 185 194 193 191 183 159 82 33 8 354 354 354 350 341 329 322 318 315 319 320 320 323 325 322
165 164 164 165 166 165 165 169 170 169 168 170 173 174 170 168 170 170 168 167 169 171 174 178 177 174 176 176 172 173 177 179 177 178 179 178 179 181 186 196 210 248 263 232 248 321 335 331 327 331 333 330 321 308 302 300 301 308 313 315 321 324 319
166 166 165 167 167 166 169 170 169 170 169 171 173 171 168 170 174 174 171 170 174 177 177 179 179 176 179 180 175 174 177 179 180 183 184 184 189 191 189 193 208 238 249 256 296 310 313 318 320 319 318 320 316 302 292 289 290 296 302 305 313 319 317
166 167 168 168 166 168 172 171 169 170 170 170 170 169 170 173 172 170 171 172 177 180 182 183 184 184 184 182 177 173 175 182 186 185 186 193 197 193 188 188 194 209 227 242 258 265 273 293 304 304 305 314 319 312 301 294 287 285 290 296 301 308 314
165 167 170 169 168 171 173 171 169 170 171 172 173 173 174 173 168 166 171 177 180 182 188 190 190 192 191 184 178 175 175 183 188 186 191 198 195 182 180 189 202 208 218 230 231 234 258 286 291 289 307 320 322 323 317 309 297 287 292 299 300 303 310
165 167 170 170 171 172 170 168 169 170 171 174 176 176 177 177 174 172 176 182 182 185 192 194 192 195 197 189 183 183 176 171 182 191 195 193 186 178 181 193 207 205 203 215 227 240 270 297 298 311 341 333 324 323 321 319 321 319 313 311 308 307 308
166 168 170 170 171 171 168 166 167 168 167 168 171 174 177 179 179 180 182 183 184 189 196 195 194 198 200 193 188 188 178 159 180 193 193 187 184 187 195 203 206 205 211 226 239 252 274 294 307 339 342 332 323 325 328 331 332 328 324 322 319 312 308
166 167 170 172 172 171 169 169 170 170 167 165 167 169 172 175 178 182 184 184 188 195 196 194 198 202 200 195 192 189 183 174 187 190 187 191 194 194 201 205 200 204 223 232 241 255 271 288 317 342 333 326 326 330 329 320 318 323 329 327 320 313 312
168 169 172 176 175 173 173 174 174 172 169 169 172 173 174 175 178 183 186 187 193 197 192 190 195 200 198 196 193 189 187 192 197 195 195 199 200 201 205 203 196 198 213 223 234 250 264 281 315 338 330 326 329 330 320 313 320 332 335 326 321 321 327
173 172 173 174 173 172 173 174 173 171 171 174 177 178 177 176 179 185 188 189 193 195 190 188 192 197 197 195 192 188 188 199 202 202 204 201 200 207 214 211 207 207 211 218 231 245 253 264 301 330 332 331 326 318 310 314 326 333 327 323 326 333 340
174 172 171 171 171 171 172 172 170 168 171 174 174 176 178 177 179 183 185 189 191 190 187 187 190 194 194 194 193 188 186 202 209 207 206 202 200 208 215 218 221 222 223 230 240 244 245 252 277 303 320 324 314 305 303 313 324 326 323 323 328 336 341
174 171 171 171 169 170 170 171 170 167 167 169 169 173 175 172 173 174 177 185 189 188 190 190 190 192 192 193 195 191 189 202 215 210 205 204 205 209 214 221 228 227 222 226 236 241 241 250 266 286 310 314 306 302 303 307 314 320 323 325 330 338 342
172 169 169 169 167 166 166 167 167 165 164 166 167 166 163 160 163 165 170 182 188 191 197 199 195 194 194 194 196 195 195 201 211 208 198 204 213 217 217 222 229 227 217 215 228 240 244 254 265 282 309 310 303 304 302 301 307 314 318 321 328 338 343
171 169 168 167 165 163 163 163 163 162 162 163 160 157 156 156 156 161 173 186 189 189 197 202 200 199 198 196 198 200 201 203 210 211 197 208 231 229 222 222 223 220 214 215 231 249 252 255 263 281 303 304 302 304 300 300 304 307 310 318 328 340 344
170 168 167 165 163 161 162 162 161 161 162 160 156 155 158 160 162 170 183 188 186 185 190 197 202 204 201 198 200 203 204 206 211 211 204 224 274 238 213 208 207 205 208 220 241 255 257 259 265 275 286 290 297 298 296 299 302 305 314 322 329 341 344